Flag for Germany Weather past 2 weeks in Burg, Saxony-Anhalt, Germany

Now
63 °F

Fog.


Feels Like: 63 °F
Forecast: 57 / 72 °F
Wind: 1 mph from East

Location: Magdeburg

Current Time: Sep 19, 2014 at 9:57:47 PM

Latest Report: Sep 19, 2014 at 9:00 PM


Visibility: 3 mi

Pressure: 29.93 "Hg

Humidity: 95%

Dew point: 62 °F

Location of BurgLocation

Historic Weather in Burg — Graph

°F

Burg temperature yesterday

Maximum temperature yesterday: 76 °F (at 5:00 PM)
Minimum temperature yesterday: 53 °F (at 7:00 AM)
Average temperature yesterday: 64 °F

Past Weeks' High & Low Weather Summary

 TemperatureHumidityPressure
High80 °F (Sep 5, 4:00 PM)98% (Sep 6, 8:00 AM)30.19 "Hg (Sep 6, 8:00 AM)
Low52 °F (Sep 9, 4:00 AM)43% (Sep 17, 6:00 PM)29.85 "Hg (Sep 6, 6:00 PM)
Average63 °F83%30.03 "Hg
* Reported Sep 4 9:00 PM — Sep 19 9:00 PM, Burg, Weather by CustomWeather, © 2014

Note: Actual official high and low records may vary slightly from our data, if they occured in-between our weather recording intervals... More about our weather records

Advertising

Burg weather history for previous 24 hours

 ConditionsComfort  
Time TempWeatherWind HumidityBarometerVisibility
9:00 PM
Sep 19
63 °FFog.1 mph95%29.93 "Hg3 mi
8:00 PM63 °FFog.1 mph94%29.92 "Hg3 mi
7:00 PM65 °FOvercast.2 mph89%29.91 "Hg6 mi
6:00 PM66 °FOvercast.2 mph86%29.91 "Hg9 mi
4:00 PM65 °FOvercast.2 mph88%29.92 "Hg10 mi
3:00 PM65 °FOvercast.1 mph90%29.93 "Hg7 mi
2:00 PM64 °FOvercast.2 mph92%29.92 "Hg4 mi
1:00 PM63 °FLight rain. Overcast.2 mph95%29.93 "Hg1 mi
12:00 PM63 °FRain. Overcast.2 mph95%29.95 "Hg1 mi
10:00 AM62 °FLight rain. Overcast.1 mph96%29.93 "Hg1 mi
9:00 AM61 °FLight rain. Overcast.1 mph96%29.92 "Hg1 mi
8:00 AM61 °FLight rain. Overcast.1 mph96%29.93 "Hg1 mi
7:00 AM61 °FLight rain. Overcast.1 mph96%29.92 "Hg2 mi
6:00 AM61 °FLight rain. Overcast.1 mph96%29.92 "Hg2 mi
5:00 AM61 °FLight freezing rain. Overcast.1 mph93%29.91 "Hg2 mi
4:00 AM61 °FLight rain. Overcast.1 mph94%29.92 "Hg2 mi
3:00 AM62 °FRain. Overcast.1 mph90%29.93 "Hg4 mi
2:00 AM62 °FOvercast.1 mph87%29.93 "Hg6 mi
1:00 AM62 °FOvercast.1 mph88%29.93 "Hg6 mi
12:00 AM63 °FOvercast.1 mph86%29.93 "Hg7 mi
11:00 PM
Sep 18
63 °FOvercast.1 mph86%29.93 "Hg6 mi
10:00 PM65 °FOvercast.2 mph79%29.93 "Hg9 mi
9:00 PM67 °FOvercast.1 mph76%29.93 "Hg7 mi
Weather by CustomWeather, © 2014

See weather overviewHow to use our weather pages